Wind_Speed
59 54 57 59 53 48 45 46 43 44 45 45 45 44 43 41 39 39 42 42 41 43 47 45 38 35 33 34 30 29 30 31 31 29 29 29 27 26 26 26 27 26 27 25 25 24 24 21 18 17 16 15 12 9
67 64 59 60 60 57 53 51 52 51 51 50 51 51 51 49 47 46 44 46 45 47 45 48 45 43 39 37 36 31 33 32 29 28 29 29 26 25 27 25 25 24 27 28 27 26 28 25 23 22 20 19 19 18
71 73 68 66 62 60 59 58 58 56 56 54 55 56 57 56 56 54 52 52 50 48 51 48 48 49 44 44 43 39 32 35 33 32 29 30 28 26 24 25 24 24 27 28 30 29 31 29 26 27 24 24 22 22
79 76 76 74 68 65 65 64 62 63 62 58 58 60 61 61 60 57 54 55 56 55 53 51 49 50 49 47 46 42 38 38 36 33 32 30 30 29 27 30 21 23 27 35 30 30 34 36 32 34 31 30 28 27
89 83 82 80 74 70 71 70 66 66 67 67 62 62 64 64 65 62 62 57 59 61 56 56 52 50 47 49 51 50 47 44 41 38 34 31 30 34 32 29 12 27 26 32 31 32 33 32 33 34 35 36 33 31
97 93 90 88 84 80 77 74 72 72 71 74 72 70 69 70 70 70 69 63 62 65 62 60 56 51 51 52 48 50 52 52 53 46 44 39 28 33 34 28 14 29 29 33 31 32 31 31 32 33 33 36 39 39
101 99 97 96 93 89 91 90 86 84 81 79 81 79 78 78 79 74 71 68 65 66 60 57 58 53 56 53 50 50 47 49 54 54 51 44 32 36 35 25 18 30 29 31 35 36 34 36 36 34 32 32 34 38
98 99 100 103 101 98 98 97 94 93 94 89 88 86 84 84 79 82 77 72 70 67 66 61 56 54 54 56 53 52 52 53 49 48 52 45 44 45 45 19 28 28 34 36 37 34 30 32 36 41 43 40 33 34
90 90 93 96 100 104 100 101 102 99 98 102 97 95 90 84 88 87 82 77 71 70 70 63 60 54 51 51 58 62 56 53 49 49 50 50 50 52 34 30 36 43 44 42 42 35 36 35 33 36 37 39 39 31
80 82 83 84 85 88 88 90 93 99 100 101 103 103 97 92 80 80 82 78 73 70 65 68 64 62 60 59 57 66 63 61 57 54 53 56 53 37 33 37 35 36 32 37 34 33 37 32 34 34 36 33 35 38
77 76 76 78 77 79 77 79 81 84 87 96 102 105 101 93 79 70 72 73 76 78 68 61 63 64 61 61 64 60 64 66 63 60 60 54 44 32 34 43 40 37 36 41 35 33 33 34 34 35 35 32 32 35
72 72 72 74 73 74 74 73 71 75 75 79 87 97 89 83 73 72 75 75 71 75 80 74 61 56 64 62 60 63 63 64 63 62 57 51 31 27 30 32 29 32 35 39 36 35 35 34 35 36 32 31 32 34
65 66 67 67 68 68 69 71 68 66 69 70 73 77 77 78 78 82 83 78 83 77 70 63 66 62 60 59 56 58 63 64 63 61 55 37 25 30 33 32 31 33 36 41 39 35 37 37 35 37 29 29 33 36
59 59 59 59 60 62 63 63 63 62 67 68 70 75 77 78 85 89 93 85 73 68 66 65 64 69 70 62 55 57 60 61 63 61 49 41 36 35 33 34 34 36 38 38 39 40 39 38 38 39 35 31 30 34
53 53 54 54 54 54 54 56 57 60 65 69 70 74 78 78 80 76 74 75 71 70 68 65 66 70 67 63 60 62 65 67 63 57 40 41 42 37 36 36 32 36 38 42 42 42 40 36 38 39 37 35 32 32
46 48 48 47 48 49 51 53 55 59 65 69 74 73 70 70 69 71 70 68 64 59 65 70 73 76 78 76 73 67 71 63 54 45 42 44 36 35 36 36 38 37 40 42 43 43 40 36 39 41 41 38 36 34
44 45 42 44 45 48 50 53 56 62 66 68 72 70 71 71 67 63 63 65 64 58 58 64 67 70 68 71 77 75 68 55 52 50 46 41 42 39 38 38 39 42 42 39 43 44 43 41 39 39 40 41 41 40
42 40 41 43 46 48 50 53 58 61 65 66 69 67 68 69 66 60 64 64 64 60 53 52 58 73 72 63 57 53 49 46 49 50 44 42 39 40 41 40 39 39 39 41 41 41 43 42 42 43 43 42 43 43
38 39 39 41 42 42 46 51 52 58 59 59 60 61 62 64 60 52 52 52 56 69 69 57 60 69 71 60 35 29 34 41 45 50 54 48 42 40 39 39 38 41 43 41 39 41 43 44 45 47 47 46 46 47
36 37 36 35 32 36 38 45 44 49 53 52 54 56 56 57 53 51 50 46 44 48 59 72 61 52 48 52 63 53 48 44 44 48 47 39 36 38 43 41 37 40 44 45 43 44 47 49 51 51 52 52 52 54
37 33 31 30 34 38 41 42 46 49 47 47 45 44 48 49 56 62 59 57 64 65 62 45 32 32 40 43 41 46 57 56 51 43 38 35 38 39 39 38 39 41 45 46 46 47 49 52 54 56 55 54 55 57
27 30 32 32 35 38 46 44 39 35 39 37 38 40 45 47 46 50 47 45 50 42 50 37 36 39 44 44 42 47 45 45 57 47 37 37 43 37 37 39 41 44 46 48 50 51 53 54 58 59 61 63 64 65
28 27 29 29 32 40 36 33 33 30 31 30 32 35 44 54 50 45 45 43 26 33 40 40 35 37 45 49 51 53 53 49 57 53 40 42 45 44 40 39 43 45 47 49 50 52 56 60 64 66 68 70 70 72
27 31 31 33 35 34 30 32 31 27 29 29 28 26 25 36 43 47 53 51 42 35 43 43 48 46 39 42 44 46 48 48 51 53 51 48 48 43 39 40 40 42 47 51 54 56 58 58 58 60 62 61 56 37
33 30 33 33 35 30 26 26 28 32 31 28 27 25 26 25 30 35 34 32 35 34 36 41 40 37 39 36 37 40 40 43 45 45 42 41 41 39 42 41 39 45 46 44 43 46 49 45 36 22 20 19 20 24
24 26 29 32 31 28 26 25 24 24 27 28 25 26 26 29 31 31 26 25 24 32 42 44 41 44 41 37 35 34 33 33 34 36 34 36 38 38 39 41 39 32 35 37 36 36 28 21 21 21 21 21 20 16
31 36 36 37 33 28 24 23 27 33 35 29 24 23 23 27 31 26 20 20 20 22 28 30 30 32 32 31 31 30 29 30 30 31 33 33 36 37 38 34 29 30 33 36 32 26 26 23 21 20 15 16 18 17
40 39 31 26 25 24 24 22 25 29 27 23 22 23 21 18 19 24 24 19 19 22 26 26 25 24 26 27 28 29 30 30 30 31 33 33 35 36 31 25 24 27 28 27 24 25 22 17 17 16 14 12 11 8
31 29 26 24 24 24 20 18 19 19 17 17 16 16 21 22 22 23 22 22 22 24 28 26 24 24 25 26 26 27 29 30 30 31 32 33 29 25 21 21 23 24 28 21 17 14 17 16 17 14 12 9 6 4
26 25 22 18 17 16 13 8 6 12 14 16 19 22 26 27 27 27 25 24 23 22 22 21 24 25 24 25 26 27 29 29 30 31 28 24 22 18 19 20 23 25 17 18 20 20 18 18 14 13 14 9 4 3
23 20 16 12 9 7 10 13 11 11 13 15 15 15 18 22 24 23 22 21 20 21 22 23 25 25 25 26 26 25 24 25 25 26 21 24 23 22 22 21 20 16 19 23 22 20 22 21 17 19 16 9 7 8
23 20 16 13 10 11 15 17 18 17 17 17 18 18 17 18 19 19 18 18 17 17 19 21 22 22 22 23 22 20 19 21 25 21 21 23 24 19 20 21 15 18 23 23 19 16 13 14 17 16 14 12 12 11
18 18 18 18 17 17 20 24 26 26 27 26 24 23 21 21 22 20 19 19 19 20 21 22 22 22 23 24 21 18 18 19 19 20 20 21 19 21 20 18 19 19 21 21 20 17 12 13 13 14 14 13 12 11
Wind_Direction
270 264 264 265 264 258 258 262 258 256 258 258 261 262 268 272 273 275 276 278 284 283 286 289 290 292 292 290 293 294 295 294 297 297 299 299 303 305 301 298 293 290 292 295 295 294 294 293 287 282 277 273 276 285
270 266 264 263 262 260 258 252 256 255 255 258 258 263 264 268 271 274 275 273 278 280 285 280 286 287 290 294 291 291 290 293 294 294 300 299 301 297 295 297 299 304 294 289 288 291 288 288 288 279 276 274 271 272
266 264 261 262 258 255 255 253 253 254 251 254 260 259 261 265 269 271 276 275 273 276 277 279 280 281 283 286 292 292 290 288 287 288 290 294 296 296 293 292 293 300 300 298 285 280 282 284 286 283 278 272 270 270
257 259 260 257 257 251 248 249 251 253 254 253 253 258 261 265 263 266 270 273 272 271 272 273 277 279 278 283 287 288 290 292 293 289 290 293 288 289 294 295 302 294 292 291 292 286 284 281 279 283 283 277 272 270
253 252 252 252 249 250 244 245 247 250 250 253 253 256 256 261 262 263 263 267 269 267 268 264 268 275 279 280 280 279 283 287 291 291 293 289 295 289 291 299 312 286 288 297 306 292 285 286 284 278 279 281 278 275
253 250 246 245 244 243 243 246 249 249 248 249 251 253 255 256 258 263 264 261 266 263 261 259 259 265 272 275 279 282 283 279 281 283 287 291 292 290 299 309 288 279 285 285 294 296 299 301 297 290 281 275 277 278
251 249 249 245 241 242 244 246 248 248 250 250 248 250 253 254 254 253 260 259 255 255 256 259 254 258 267 271 274 278 278 281 282 280 282 283 283 284 297 316 262 276 289 300 298 295 293 291 296 298 298 288 278 278
254 252 250 245 243 242 241 242 243 243 247 245 244 245 247 248 247 253 254 254 255 256 255 257 256 258 266 263 268 273 274 277 279 282 282 280 278 281 281 297 289 286 291 303 306 302 301 298 297 292 292 293 296 284
257 256 254 252 251 249 246 244 244 242 239 237 239 241 242 250 248 249 251 251 252 256 256 254 252 256 259 263 270 272 274 276 278 283 283 278 280 281 288 278 275 280 288 292 292 301 303 296 292 292 299 298 291 293
257 256 256 256 255 254 256 255 250 246 247 246 243 240 245 252 259 261 258 254 254 254 256 254 259 259 260 261 267 272 277 277 278 279 279 280 280 287 281 277 275 278 289 293 290 283 288 292 286 286 298 294 291 293
258 258 257 256 256 256 256 255 255 250 250 250 251 248 246 257 255 243 249 257 258 252 249 250 255 256 262 263 264 269 272 274 274 275 278 280 282 292 266 266 268 267 278 281 277 277 287 290 279 283 295 293 290 290
259 258 257 257 256 256 255 255 254 253 252 249 248 252 258 257 248 242 244 246 249 254 251 250 255 264 262 266 266 268 272 274 277 277 275 277 284 276 262 269 280 277 279 280 274 278 285 282 277 282 288 285 280 282
258 257 256 256 256 256 254 253 253 253 252 249 246 245 245 245 241 242 241 248 254 256 260 260 256 262 266 267 267 268 267 269 274 274 275 270 288 261 258 266 271 276 277 275 269 279 285 285 282 280 277 277 275 276
255 256 256 255 254 253 253 252 249 247 247 244 244 243 240 237 238 244 254 259 255 255 251 252 257 259 259 262 262 262 265 266 268 272 278 271 276 271 269 270 271 273 272 279 273 273 280 280 280 283 281 277 272 273
255 254 254 253 251 250 247 245 243 240 240 240 239 240 242 242 241 243 246 248 249 250 249 250 251 252 255 257 258 260 263 265 270 277 281 269 269 270 266 270 271 270 268 271 271 274 277 279 277 278 278 277 276 271
253 252 252 251 249 247 245 242 239 237 236 237 237 237 243 243 243 243 244 245 250 247 241 243 246 248 251 251 254 257 260 265 274 271 275 271 276 272 272 272 270 272 275 274 273 274 277 278 279 280 278 277 278 274
251 251 251 250 247 245 244 241 238 237 236 236 239 238 239 243 239 240 236 235 237 242 247 243 244 245 249 251 252 256 263 267 269 272 273 268 267 271 267 266 267 271 272 268 267 274 276 276 276 278 280 280 281 281
251 251 250 250 248 246 244 243 241 240 239 240 240 240 239 239 237 237 237 234 234 239 243 246 252 252 250 253 254 259 258 258 263 267 267 262 263 266 266 264 270 267 264 264 268 274 277 276 276 276 279 278 276 276
251 252 251 249 247 246 245 245 244 245 245 244 243 243 243 238 236 230 233 234 238 238 240 241 253 249 250 244 255 251 250 258 264 265 260 258 260 261 265 268 271 266 263 265 271 275 278 277 274 274 278 280 280 278
250 250 248 248 244 243 243 245 243 244 244 243 241 241 243 244 231 223 224 229 234 241 249 238 245 257 257 254 250 252 264 266 263 260 257 254 260 265 266 267 268 263 266 271 271 274 277 277 276 274 275 276 277 277
250 247 242 238 237 240 241 239 237 240 244 246 241 242 242 240 227 225 236 242 246 246 245 234 261 252 256 251 249 245 252 255 262 261 256 261 264 268 269 272 270 266 265 266 270 274 275 273 272 274 275 275 276 276
240 239 240 235 237 234 237 238 244 242 239 242 242 242 241 221 220 228 228 247 242 246 235 246 253 249 242 238 247 242 245 245 248 259 250 265 268 266 270 272 274 271 270 271 272 273 275 275 275 275 275 275 274 273
234 235 239 233 234 236 234 234 229 221 240 242 239 237 234 218 218 231 246 239 246 238 236 244 247 251 245 244 241 242 245 251 251 257 262 263 262 263 265 271 272 271 273 275 275 275 276 277 277 277 277 278 277 273
231 231 228 226 225 225 221 211 212 233 238 238 240 232 227 227 233 242 242 239 243 238 245 245 250 262 255 244 244 244 244 246 246 249 252 259 264 266 265 262 264 270 272 275 278 280 280 281 286 285 281 278 277 267
227 220 221 218 212 209 212 217 222 231 238 229 228 235 235 241 246 243 242 243 244 244 237 240 249 252 254 252 248 245 245 246 246 247 251 256 258 258 259 262 265 272 278 278 279 286 296 298 286 267 278 290 272 250
212 209 210 199 200 214 220 219 213 216 221 228 236 240 246 254 256 253 252 257 251 238 239 245 245 243 246 245 245 246 246 245 248 252 250 250 250 253 259 265 272 271 273 279 291 299 292 276 277 291 299 296 270 241
193 189 195 201 212 225 228 224 220 214 221 228 238 245 250 262 263 261 264 263 249 239 229 227 230 236 242 244 246 245 240 238 238 238 242 249 253 258 268 267 262 266 277 285 287 284 282 274 278 274 255 254 266 263
188 196 201 207 218 227 234 229 224 224 231 238 240 252 255 259 270 265 260 243 238 231 225 230 234 241 240 237 235 231 230 233 239 244 251 254 260 260 257 257 262 271 284 284 273 281 274 256 271 277 277 273 260 229
192 199 208 207 215 225 229 230 227 227 230 237 254 255 241 233 233 236 235 235 234 231 233 233 231 227 225 225 229 233 239 240 245 250 254 261 255 249 247 258 265 273 290 271 259 236 257 269 275 278 266 214 167 138
199 203 199 207 223 225 224 228 252 226 215 215 222 225 224 224 230 235 238 241 242 238 240 234 222 222 226 232 236 240 242 247 249 253 263 244 237 247 255 263 274 283 258 227 236 249 259 254 255 239 215 190 138 192
185 181 172 184 199 208 220 216 216 218 221 216 215 229 239 244 244 241 240 237 231 222 222 228 228 226 229 232 236 240 247 251 263 272 247 224 235 253 256 279 277 258 218 222 234 250 255 258 257 243 218 187 187 203
171 167 171 181 195 214 218 216 218 224 229 233 234 235 238 242 242 235 224 218 223 227 232 236 238 239 240 245 249 252 258 270 275 258 227 228 247 251 278 271 242 224 216 231 243 269 277 285 260 226 188 179 180 185
194 195 199 208 217 226 228 229 230 233 239 245 249 248 243 241 236 233 224 221 227 233 240 243 245 246 252 254 254 261 268 267 255 231 232 241 255 277 271 232 217 220 227 236 253 262 269 260 204 185 177 173 183 189
Height
5714 5718 5720 5723 5725 5726 5728 5730 5730 5730 5730 5729 5729 5728 5727 5726 5724 5723 5723 5721 5721 5720 5719 5719 5717 5714 5715 5714 5713 5711 5710 5707 5706 5704 5703 5700 5699 5698 5696 5695 5692 5692 5691 5690 5688 5687 5686 5685 5685 5684 5683 5681 5680 5678
5698 5698 5701 5704 5707 5708 5710 5711 5714 5715 5717 5716 5717 5716 5715 5714 5712 5712 5711 5710 5711 5709 5711 5708 5709 5706 5705 5705 5704 5704 5703 5700 5699 5697 5696 5694 5693 5691 5690 5689 5687 5687 5685 5683 5683 5681 5678 5678 5678 5678 5678 5677 5676 5675
5675 5680 5682 5685 5686 5688 5692 5694 5696 5697 5698 5700 5701 5700 5702 5701 5700 5700 5699 5699 5698 5699 5699 5698 5698 5695 5696 5695 5696 5695 5694 5690 5691 5689 5688 5687 5686 5685 5683 5682 5681 5680 5676 5675 5673 5673 5670 5670 5671 5670 5670 5669 5669 5669
5647 5652 5658 5661 5664 5667 5668 5671 5675 5679 5681 5681 5681 5682 5683 5684 5684 5685 5685 5685 5686 5686 5686 5689 5686 5684 5683 5684 5685 5684 5684 5682 5681 5680 5679 5678 5676 5677 5676 5674 5676 5673 5669 5665 5667 5665 5664 5663 5663 5662 5662 5662 5661 5661
5618 5623 5628 5634 5641 5643 5646 5648 5650 5655 5659 5662 5663 5662 5663 5665 5664 5664 5667 5670 5669 5671 5673 5674 5673 5675 5673 5672 5671 5671 5672 5672 5670 5669 5669 5669 5668 5666 5666 5665 5669 5663 5662 5659 5657 5655 5655 5655 5654 5653 5653 5652 5653 5653
5589 5594 5597 5602 5610 5617 5621 5625 5628 5630 5634 5638 5640 5642 5642 5642 5640 5641 5647 5654 5654 5653 5652 5658 5661 5661 5660 5659 5659 5660 5659 5659 5658 5657 5659 5658 5659 5655 5655 5657 5661 5653 5652 5650 5652 5648 5649 5648 5646 5645 5644 5643 5642 5642
5555 5562 5569 5575 5580 5584 5591 5596 5601 5606 5610 5613 5614 5617 5619 5616 5612 5619 5628 5635 5632 5631 5633 5637 5644 5648 5647 5647 5647 5646 5644 5645 5645 5645 5646 5648 5648 5644 5647 5651 5649 5642 5643 5643 5642 5640 5641 5639 5638 5636 5635 5634 5632 5631
5520 5527 5535 5543 5548 5555 5559 5565 5570 5575 5581 5588 5590 5591 5593 5587 5586 5594 5602 5607 5611 5611 5614 5619 5629 5633 5633 5633 5633 5632 5630 5630 5633 5634 5635 5636 5635 5634 5636 5640 5637 5633 5631 5633 5630 5629 5631 5630 5628 5626 5625 5625 5623 5621
5492 5496 5502 5509 5516 5523 5529 5535 5541 5544 5549 5554 5561 5566 5564 5555 5564 5576 5579 5578 5583 5588 5591 5605 5615 5616 5617 5619 5620 5614 5615 5615 5617 5621 5621 5620 5622 5619 5630 5623 5624 5620 5619 5621 5619 5619 5619 5618 5616 5615 5613 5612 5612 5611
5464 5470 5477 5482 5485 5493 5501 5507 5511 5517 5521 5524 5530 5537 5535 5546 5551 5554 5548 5548 5554 5565 5574 5591 5599 5599 5600 5601 5602 5601 5599 5599 5601 5606 5604 5605 5606 5614 5614 5609 5607 5606 5608 5607 5607 5607 5606 5606 5603 5601 5601 5600 5599 5599
5441 5446 5451 5456 5461 5468 5473 5478 5485 5488 5497 5504 5506 5510 5517 5519 5525 5527 5521 5523 5531 5548 5562 5573 5578 5582 5583 5584 5581 5584 5583 5583 5584 5589 5587 5591 5597 5603 5593 5590 5590 5595 5597 5595 5594 5594 5593 5592 5592 5589 5588 5587 5588 5586
5416 5421 5427 5432 5437 5443 5449 5453 5457 5463 5473 5475 5484 5488 5487 5486 5495 5494 5491 5497 5515 5532 5543 5556 5565 5569 5565 5564 5564 5566 5564 5564 5567 5572 5574 5580 5591 5583 5580 5578 5579 5582 5583 5581 5581 5581 5580 5579 5578 5579 5575 5575 5574 5573
5394 5398 5403 5409 5415 5419 5424 5430 5435 5441 5444 5451 5453 5458 5456 5458 5460 5457 5465 5485 5500 5515 5532 5544 5548 5547 5544 5546 5544 5544 5543 5547 5550 5555 5562 5575 5569 5564 5565 5567 5567 5569 5570 5569 5569 5568 5568 5567 5566 5566 5563 5561 5561 5560
5372 5378 5384 5388 5392 5396 5402 5407 5413 5418 5418 5422 5426 5426 5426 5426 5430 5438 5465 5482 5495 5505 5515 5519 5522 5523 5523 5525 5523 5523 5525 5529 5534 5542 5555 5559 5549 5549 5552 5553 5554 5555 5555 5555 5555 5555 5554 5554 5554 5554 5551 5549 5547 5545
5355 5360 5365 5368 5372 5376 5380 5385 5390 5393 5391 5394 5397 5397 5400 5414 5420 5438 5450 5459 5473 5483 5489 5496 5498 5499 5502 5501 5505 5506 5507 5513 5526 5537 5538 5532 5531 5533 5534 5537 5538 5541 5540 5540 5541 5540 5539 5539 5540 5540 5539 5537 5536 5533
5337 5341 5345 5350 5354 5358 5361 5365 5369 5370 5366 5368 5369 5381 5390 5399 5411 5422 5434 5444 5452 5459 5463 5468 5470 5473 5474 5483 5484 5487 5493 5511 5520 5517 5514 5514 5517 5517 5519 5521 5524 5525 5525 5525 5526 5527 5526 5524 5525 5526 5526 5525 5523 5522
5321 5325 5332 5334 5337 5340 5343 5345 5348 5345 5345 5347 5355 5368 5379 5382 5392 5407 5415 5425 5433 5436 5442 5450 5447 5453 5455 5453 5462 5475 5490 5505 5501 5496 5495 5496 5499 5501 5504 5506 5509 5510 5511 5509 5511 5511 5510 5510 5511 5512 5511 5511 5510 5509
5308 5314 5317 5318 5320 5322 5324 5325 5325 5324 5328 5336 5342 5355 5361 5369 5381 5388 5399 5405 5412 5420 5427 5431 5434 5427 5429 5438 5458 5473 5478 5480 5480 5478 5479 5478 5481 5485 5488 5491 5492 5493 5493 5494 5494 5495 5495 5494 5495 5497 5497 5496 5495 5494
5296 5299 5301 5304 5305 5307 5307 5309 5311 5311 5321 5329 5335 5340 5346 5353 5365 5374 5381 5390 5395 5403 5404 5406 5404 5403 5419 5438 5451 5454 5459 5460 5458 5458 5462 5464 5467 5470 5472 5473 5475 5476 5479 5478 5478 5479 5479 5478 5478 5479 5480 5480 5479 5479
5283 5286 5288 5291 5293 5294 5293 5297 5300 5303 5308 5315 5320 5327 5334 5344 5357 5361 5369 5375 5381 5382 5378 5379 5389 5405 5417 5428 5434 5437 5440 5440 5442 5443 5447 5449 5449 5454 5458 5458 5457 5460 5464 5465 5463 5462 5463 5463 5463 5462 5461 5460 5460 5461
5270 5274 5277 5279 5281 5280 5281 5284 5287 5292 5299 5305 5312 5318 5321 5330 5334 5345 5355 5364 5358 5358 5363 5378 5389 5397 5402 5410 5415 5419 5424 5426 5425 5427 5433 5434 5436 5438 5440 5442 5443 5444 5446 5447 5447 5445 5445 5445 5444 5445 5444 5441 5440 5440
5261 5262 5264 5266 5266 5268 5268 5276 5283 5289 5290 5297 5303 5309 5311 5318 5326 5335 5345 5340 5344 5350 5365 5374 5378 5381 5386 5392 5395 5397 5400 5402 5412 5416 5418 5420 5423 5423 5424 5426 5427 5429 5430 5431 5430 5429 5428 5427 5425 5424 5422 5419 5417 5417
5250 5252 5253 5255 5256 5257 5266 5271 5276 5282 5285 5290 5295 5299 5304 5311 5320 5326 5324 5332 5341 5351 5355 5359 5363 5368 5371 5374 5377 5381 5386 5390 5396 5400 5403 5405 5407 5409 5408 5408 5412 5413 5414 5414 5413 5411 5408 5406 5404 5400 5397 5394 5392 5390
5240 5240 5242 5244 5247 5253 5260 5265 5272 5277 5281 5284 5289 5292 5299 5308 5315 5316 5319 5328 5336 5340 5343 5348 5350 5350 5354 5359 5364 5369 5373 5376 5379 5384 5388 5390 5393 5395 5395 5394 5394 5397 5397 5397 5395 5392 5388 5385 5381 5375 5369 5364 5361 5361
5228 5232 5234 5238 5245 5254 5259 5264 5269 5273 5277 5281 5285 5289 5294 5299 5303 5306 5310 5319 5324 5329 5332 5333 5335 5339 5343 5347 5350 5353 5356 5360 5365 5370 5371 5373 5377 5379 5383 5383 5381 5381 5381 5379 5377 5375 5370 5363 5358 5356 5354 5352 5351 5351
5221 5226 5231 5240 5246 5249 5254 5258 5263 5267 5271 5275 5280 5285 5290 5293 5295 5297 5303 5308 5310 5314 5318 5322 5326 5329 5332 5335 5339 5343 5347 5349 5351 5354 5358 5361 5365 5368 5370 5369 5368 5367 5366 5366 5365 5360 5355 5352 5351 5349 5346 5344 5344 5345
5215 5223 5229 5235 5239 5246 5250 5255 5260 5263 5265 5272 5276 5280 5284 5286 5288 5292 5295 5297 5300 5303 5307 5312 5316 5319 5322 5325 5328 5332 5335 5338 5341 5345 5348 5351 5354 5356 5356 5355 5355 5356 5356 5355 5351 5348 5346 5345 5345 5343 5341 5340 5340 5342
5213 5219 5228 5235 5238 5243 5247 5252 5257 5260 5264 5269 5273 5274 5277 5280 5284 5285 5286 5289 5292 5296 5299 5303 5306 5309 5313 5316 5319 5323 5326 5330 5333 5337 5339 5340 5342 5342 5343 5344 5346 5346 5345 5342 5340 5339 5338 5339 5339 5338 5337 5336 5337 5338
5215 5222 5226 5231 5235 5240 5244 5249 5254 5257 5260 5263 5266 5267 5269 5273 5276 5278 5281 5283 5286 5290 5293 5297 5300 5303 5306 5309 5312 5316 5320 5323 5325 5327 5329 5329 5330 5331 5333 5335 5336 5336 5334 5332 5331 5332 5333 5334 5334 5333 5333 5334 5333 5334
5216 5220 5224 5230 5234 5238 5242 5246 5249 5252 5254 5257 5259 5263 5265 5268 5269 5271 5275 5279 5282 5286 5289 5293 5296 5298 5301 5305 5308 5311 5314 5315 5316 5317 5317 5318 5320 5323 5325 5326 5326 5325 5324 5324 5326 5328 5328 5329 5329 5329 5330 5330 5331 5334
5214 5220 5223 5228 5233 5236 5239 5241 5245 5248 5252 5255 5258 5260 5262 5264 5266 5269 5271 5274 5278 5281 5285 5289 5292 5294 5297 5300 5302 5304 5305 5306 5305 5305 5306 5310 5314 5315 5316 5316 5316 5316 5317 5319 5321 5323 5324 5324 5325 5326 5327 5329 5331 5334
5215 5218 5224 5228 5231 5234 5237 5240 5243 5245 5248 5251 5254 5257 5260 5262 5263 5266 5269 5271 5273 5277 5281 5284 5286 5289 5291 5293 5294 5295 5296 5295 5296 5296 5299 5302 5305 5306 5307 5307 5308 5309 5311 5313 5317 5318 5319 5320 5322 5324 5325 5327 5330 5334
5216 5219 5222 5225 5228 5231 5233 5236 5238 5241 5244 5247 5249 5251 5254 5257 5260 5263 5263 5265 5269 5272 5275 5277 5279 5281 5283 5285 5286 5287 5288 5289 5290 5292 5294 5296 5298 5297 5297 5298 5300 5304 5307 5310 5312 5315 5317 5318 5320 5322 5325 5327 5331 5334